Regional Weather Roundup
Issued by NWS Kansas City/Pleasant Hill, MO

Home | Current Version | Previous Version | Graphics & Text | Print | Product List | Glossary Off
Versions: 1 2 3 4 5 6 7 8 9 10 11 12 13 14 15 16 17 18 19 20 21 22 23 24 25 26 27

000
ASUS43 KEAX 032110
RWREAX

WEATHER ROUNDUP FOR EASTERN KANSAS AND NORTHWEST MISSOURI
NATIONAL WEATHER SERVICE KANSAS CITY/PLEASANT HILL MO
300 PM CST SAT DEC 03 2016

KSZ040-057-103>105-MOZ028-029-037-043-032200-
...KANSAS CITY METROPOLITAN AREA...

CITY           SKY/WX    TMP DP  RH WIND       PRES   REMARKS
K.C. INTL      CLOUDY    44  30  57 E9        30.17F
K.C. DOWNTOWN  CLOUDY    48  31  51 E6        30.17F
LEES SUMMIT    PTSUNNY   49  30  48 E8        30.17F
OLATHE - IXD   CLOUDY    48  31  51 SE8       30.16F
OLATHE - OJC   CLOUDY    48  30  49 SE9       30.16F
LAWRENCE       CLOUDY    47  31  53 E9        30.16F

$$

MOZ001>008-011>017-020>025-030>033-038>040-044>046-053-054-032200-
...NORTHERN AND CENTRAL MISSOURI...

CITY           SKY/WX    TMP DP  RH WIND       PRES   REMARKS
ST. JOSEPH     CLOUDY    44  30  57 SE5       30.18F
MOSBY          CLOUDY    45  30  57 E7        30.19S
WARRENSBURG    CLOUDY    50  30  46 E5        30.19S
WHITEMAN AFB   MOSUNNY   49  31  49 SE9       30.18F
CLINTON        CLOUDY    48  32  53 SE7       30.19F
SEDALIA        MOSUNNY   48  30  49 E13       30.21F
WARSAW         NOT AVBL
CHILLICOTHE      N/A     45  31  58 SE8       30.23F
KIRKSVILLE     CLOUDY    44  33  65 SE8       30.24F

$$

MOZ041-047>049-056>058-063>065-088>090-097-032200-
...EASTERN AND SOUTHERN MISSOURI...

CITY           SKY/WX    TMP DP  RH WIND       PRES   REMARKS
ST. LOUIS INTL CLOUDY    45  29  53 SE8       30.29F
SPIRIT OF STL  CLOUDY    44  32  62 SE6       30.28F
COLUMBIA       MOSUNNY   45  32  60 E8        30.23F
JEFFERSON CITY CLOUDY    46  31  55 E7        30.24F
ROLLA          CLOUDY    44  31  60 SE7       30.23S
OSAGE BEACH    PTSUNNY   47  31  53 SE6       30.23S
SPRINGFIELD    CLOUDY    46  32  58 SE10      30.18S
BRANSON        CLOUDY    41  36  81 E13G18    30.20S WCI  34
JOPLIN         LGT RAIN  50  35  56 SE14      30.16F
WEST PLAINS    LGT RAIN  43  33  68 SE12      30.23F

$$

IAZ060-094-KSZ022-034>040-054-083-096-NEZ052-066-093-032200-
...KANSAS...SOUTHEAST NEBRASKA AND IOWA...

CITY           SKY/WX    TMP DP  RH WIND       PRES   REMARKS
TOPEKA         CLOUDY    48  31  51 E7        30.15F
MANHATTAN      LGT RAIN  39  34  82 E3        30.15F
EMPORIA        CLOUDY    47  32  56 CALM      30.13F
CHANUTE        CLOUDY    52  33  48 S8G17     30.14F
WICHITA        CLOUDY    43  38  82 CALM      30.11F
OMAHA          LGT SNOW  33  30  88 SE3       30.21F VSB 3/4
LINCOLN        LGT SNOW  33  32  96 SE6       30.19S VSB 1   WCI  28
FALLS CITY     CLOUDY    38  33  82 NE3       30.18F
LAMONI         CLOUDY    42  31  64 SE7       30.22S
DES MOINES     CLOUDY    41  30  65 SE7       30.24F

$$





USA.gov is the U.S. government's official web portal to all federal, state and local government web resources and services.